This demonstration page uses our WeatherBlox Daily Observations layout. Learn more.

Left ArrowRight Arrow

34.16533, -84.80231

Hourly Observations for April 7, 2020

Temp ( °F °C ) Dew Point ( °F °C ) Humidity (%) Winds ( mph kmh ) Pressure ( in mb ) Visibility ( mi km ) Precip ( " mm )
12:53 am 00:53 Clear 64 17.8 56 13.3 75 75 Calm 30.03 1017 10 16 0.00 0.00
1:53 am 01:53 Clear 61 16.1 55 12.8 81 81 Calm 30.03 1017 10 16 0.00 0.00
2:53 am 02:53 Clear 60 15.6 55 12.8 84 84 Calm 30.02 1017 10 16 0.00 0.00
3:53 am 03:53 Clear 59 15 55 12.8 87 87 Calm 30.02 1017 10 16 0.00 0.00
4:53 am 04:53 Clear 60 15.6 55 12.8 84 84 Calm 30.01 1016 10 16 0.00 0.00
5:53 am 05:53 Partly Cloudy 60 15.6 56 13.3 86 86 Calm 30.03 1017 10 16 0.00 0.00
6:53 am 06:53 Clear 60 15.6 56 13.3 86 86 Calm 30.03 1017 10 16 0.00 0.00
7:53 am 07:53 Sunny 59 15 56 13.3 90 90 Calm 30.05 1018 10 16 0.00 0.00
8:53 am 08:53 Mostly Sunny 64 17.8 59 15 84 84 Calm 30.06 1018 10 16 0.00 0.00
9:53 am 09:53 Cloudy 68 20 60 15.6 76 76 Calm 30.06 1018 10 16 0.00 0.00
10:53 am 10:53 Mostly Cloudy 72 22.2 60 15.6 66 66 Calm 30.06 1018 10 16 0.00 0.00
11:53 am 11:53 Mostly Cloudy 74 23.3 60 15.6 62 62 VRB 3 6 30.06 1018 10 16 0.00 0.00
12:53 pm 12:53 Partly Cloudy 77 25 61 16.1 58 58 Calm 30.03 1017 10 16 0.00 0.00
1:53 pm 13:53 Mostly Cloudy 77 25 60 15.6 56 56 VRB 3 6 30.01 1016 10 16 0.00 0.00
2:53 pm 14:53 Mostly Cloudy 76 24.4 60 15.6 58 58 undefined N/A 30.01 1016 10 16 0.00 0.00
3:53 pm 15:53 Mostly Cloudy 75 23.9 58 14.4 55 55 VRB 3 6 29.98 1015 10 16 0.00 0.00
4:53 pm 16:53 Mostly Sunny 74 23.3 57 13.9 56 56 Calm 29.99 1016 10 16 0.00 0.00
5:53 pm 17:53 Sunny 71 21.7 56 13.3 59 59 VRB 3 6 29.96 1015 10 16 0.00 0.00
6:53 pm 18:53 Sunny 69 20.6 56 13.3 63 63 S 3 6 29.95 1014 10 16 0.00 0.00
7:53 pm 19:53 Sunny 66 18.9 56 13.3 70 70 Calm 29.98 1015 10 16 0.00 0.00
8:53 pm 20:53 Clear 65 18.3 56 13.3 73 73 Calm 29.98 1015 10 16 0.00 0.00
9:53 pm 21:53 Clear 64 17.8 56 13.3 75 75 Calm 29.96 1015 10 16 0.00 0.00
10:53 pm 22:53 Clear 62 16.7 56 13.3 80 80 Calm 29.98 1015 10 16 0.00 0.00
11:53 pm 23:53 Clear 59 15 56 13.3 90 90 Calm 29.93 1014 10 16 0.00 0.00

Powered by AerisWeather